Location: Hesters Ferry
(33.9426°N, 82.5501°W)
Time: 19:52:55
(UTC+00:00)

ARIANE 6 FM1 Upper Stage - Pass Details

Date: 17 June 2025
Orbit: 528 x 612 km, 62.0° (Epoch: 20 July)

Event Time Altitude Azimuth Distance (km) Brightness Sun altitude
Rises 01:59:46 0° 331° (NNW) 2,734 7.6 -13.8°
Reaches altitude 10° 02:01:59 10° 334° (NNW) 1,850 6.4 -14.1°
Maximum altitude 02:06:07 64° 56° (ENE) 636 2.8 -14.8°
Enters shadow 02:08:18 27° 130° (SE) 1,121 3.6 -15.1°
